TimeEDT,TemperatureF,Dew PointF,Humidity,Sea Level PressureIn,VisibilityMPH,Wind Direction,Wind SpeedMPH,Gust SpeedMPH,PrecipitationIn,Events,Conditions,WindDirDegrees,DateUTC
12:53 AM,84.0,73.9,72,30.05,10.0,East,8.1,-,N/A,,Clear,100,2013-08-18 04:53:00
1:53 AM,86.0,75.0,70,30.03,10.0,East,10.4,-,N/A,,Scattered Clouds,90,2013-08-18 05:53:00
2:53 AM,84.9,75.0,72,30.01,10.0,East,8.1,-,N/A,,Clear,90,2013-08-18 06:53:00
3:53 AM,84.9,73.9,69,29.99,10.0,East,10.4,-,N/A,,Partly Cloudy,80,2013-08-18 07:53:00
4:30 AM,84.2,75.2,74,29.99,10.0,East,9.2,-,N/A,,Mostly Cloudy,100,2013-08-18 08:30:00
4:45 AM,84.2,73.4,70,29.99,10.0,East,10.4,-,N/A,,Scattered Clouds,80,2013-08-18 08:45:00
4:53 AM,82.9,73.0,72,29.99,6.0,East,8.1,17.3,0.01,Rain,Rain,80,2013-08-18 08:53:00
5:53 AM,84.0,73.0,69,29.99,10.0,East,9.2,-,0.00,,Clear,100,2013-08-18 09:53:00
6:53 AM,84.0,73.0,69,30.00,10.0,East,9.2,16.1,N/A,,Partly Cloudy,100,2013-08-18 10:53:00
7:53 AM,84.9,73.9,69,30.03,10.0,East,8.1,-,N/A,,Scattered Clouds,100,2013-08-18 11:53:00
8:53 AM,87.1,75.0,67,30.03,10.0,East,11.5,18.4,0.00,,Scattered Clouds,100,2013-08-18 12:53:00
9:53 AM,89.1,75.0,63,30.04,10.0,East,10.4,-,N/A,,Scattered Clouds,100,2013-08-18 13:53:00
10:53 AM,91.0,75.0,59,30.05,10.0,ESE,8.1,17.3,N/A,,Partly Cloudy,110,2013-08-18 14:53:00
11:53 AM,91.0,75.0,59,30.05,10.0,East,9.2,16.1,N/A,,Clear,100,2013-08-18 15:53:00
12:53 PM,91.9,75.0,58,30.04,10.0,ESE,9.2,20.7,N/A,,Clear,110,2013-08-18 16:53:00
1:53 PM,91.9,75.9,59,30.02,10.0,East,10.4,19.6,N/A,,Scattered Clouds,100,2013-08-18 17:53:00
2:53 PM,90.0,75.9,63,30.01,10.0,East,11.5,20.7,N/A,,Partly Cloudy,90,2013-08-18 18:53:00
3:53 PM,87.1,75.9,69,30.00,10.0,ESE,10.4,19.6,N/A,,Scattered Clouds,120,2013-08-18 19:53:00
4:53 PM,88.0,75.9,67,30.00,10.0,ESE,9.2,-,N/A,,Partly Cloudy,110,2013-08-18 20:53:00
5:31 PM,86.0,75.2,70,29.98,9.0,ESE,5.8,-,N/A,Thunderstorm,Mostly Cloudy,110,2013-08-18 21:31:00
5:46 PM,86.0,75.2,70,29.98,10.0,East,11.5,19.6,N/A,,Scattered Clouds,100,2013-08-18 21:46:00
5:53 PM,86.0,75.0,70,29.97,10.0,East,12.7,19.6,N/A,,Partly Cloudy,80,2013-08-18 21:53:00
6:53 PM,82.9,72.0,69,29.97,10.0,ESE,8.1,19.6,N/A,,Partly Cloudy,110,2013-08-18 22:53:00
7:53 PM,84.9,73.9,69,29.99,10.0,East,8.1,-,N/A,,Clear,100,2013-08-18 23:53:00
8:53 PM,86.0,73.9,67,30.01,10.0,SSE,8.1,-,N/A,,Partly Cloudy,150,2013-08-19 00:53:00
9:53 PM,86.0,73.9,67,30.03,10.0,ESE,6.9,-,N/A,,Scattered Clouds,110,2013-08-19 01:53:00
10:53 PM,86.0,73.9,67,30.05,10.0,East,6.9,-,N/A,,Mostly Cloudy,90,2013-08-19 02:53:00
11:53 PM,86.0,73.0,65,30.06,10.0,East,5.8,-,N/A,,Clear,90,2013-08-19 03:53:00